Probability
0 0 0 0 0 0 0 0 0 0 0 0 0 0 0 0 0 0 0 0 0 0 0 0 0 0 0 0 0 0 0 0 0 0 0 0 0 0 0 0 0 0 0
0 0 0 0 0 0 0 0 0 0 0 0 0 0 0 0 0 0 0 0 0 0 0 0 0 0 0 0 0 0 0 0 0 0 0 0 0 0 0 0 0 0 0
0 0 0 0 0 0 0 0 0 0 0 0 0 0 0 0 0 0 0 0 0 0 0 0 0 0 0 0 0 0 0 0 0 0 0 0 0 0 0 0 0 0 0
0 0 0 0 0 0 0 0 0 0 0 0 0 0 0 0 0 0 0 0 0 0 0 0 0 0 0 0 0 0 0 0 0 0 0 0 0 0 0 0 0 0 0
0 0 0 0 0 0 0 0 0 0 0 0 0 0 0 0 0 0 0 0 0 0 0 0 0 0 0 0 0 0 0 0 0 0 0 0 0 0 0 0 0 0 0
0 0 0 0 0 0 0 0 0 0 0 0 0 0 0 0 0 0 0 0 0 0 0 0 0 0 0 0 0 0 0 0 0 0 0 0 0 0 0 0 0 0 0
0 0 0 0 0 0 0 0 0 0 0 0 0 0 0 0 0 0 0 0 0 0 0 0 0 0 0 0 0 0 0 0 0 0 0 0 0 0 0 0 0 0 0
0 0 0 0 0 0 0 0 0 0 0 0 0 0 0 0 0 0 0 0 0 0 0 0 0 0 0 0 0 0 0 0 0 0 0 0 0 0 0 0 0 0 0
0 0 0 0 0 0 0 0 0 0 0 0 0 0 0 0 0 0 0 0 0 0 0 0 0 0 0 0 0 0 0 0 0 0 0 0 0 0 0 0 0 0 0
0 0 0 0 0 0 0 0 0 0 0 0 0 0 0 0 0 0 0 0 0 0 0 0 0 0 0 0 0 0 0 0 0 0 0 0 0 0 0 0 0 0 0
0 0 0 0 0 0 0 0 0 0 0 0 0 0 0 0 0 0 0 0 0 0 0 0 0 0 0 0 0 0 0 0 0 0 0 0 0 0 0 0 0 0 0
0 0 0 0 0 0 0 0 0 0 0 0 0 0 0 0 0 0 0 0 0 0 0 0 0 0 0 0 0 0 0 0 0 0 0 0 0 0 0 0 0 0 0
0 0 0 0 0 0 0 0 0 0 0 0 0 0 0 0 0 0 0 0 0 0 0 0 0 0 0 0 0 0 0 0 0 0 0 0 0 0 0 0 0 0 0
0 0 0 0 0 0 0 0 0 0 0 0 0 0 0 0 0 0 0 0 0 0 0 0 0 0 0 0 0 0 0 0 0 0 0 0 0 0 0 0 0 0 0
0 0 0 0 0 0 0 0 0 0 0 0 0 0 0 0 0 0 0 0 0 0 0 0 0 0 0 0 0 0 0 0 0 0 0 0 0 0 0 0 0 0 0
0 0 0 0 0 0 0 0 0 0 0 0 0 0 0 0 0 0 0 0 0 0 0 0 0 0 0 0 0 0 0 0 0 0 0 0 0 0 0 0 0 0 0
0 0 0 0 0 0 0 0 0 0 0 0 0 0 0 0 0 0 0 0 0 0 0 0 0 0 0 0 0 0 0 0 0 0 0 0 0 0 0 0 0 0 0
0 0 0 0 0 0 0 0 0 0 0 0 0 0 0 0 0 0 0 0 0 0 0 0 0 0 0 0 0 0 0 0 0 0 0 0 0 0 0 0 0 0 0
0 0 0 0 0 0 0 0 0 0 0 0 0 0 0 0 0 0 0 0 0 0 0 0 0 0 0 0 0 0 0 0 0 0 0 0 0 0 0 0 0 0 0
0 0 0 0 0 0 0 0 0 0 0 0 0 0 0 0 0 0 0 0 0 0 0 0 0 0 0 0 0 0 0 0 0 0 0 0 0 0 0 0 0 0 0
0 0 0 0 0 0 0 0 0 0 0 0 0 0 0 0 0 0 0 0 0 0 0 0 0 0 0 0 0 0 0 0 0 0 0 0 0 0 0 0 0 0 0
0 0 0 0 0 0 0 0 0 0 0 0 0 0 0 0 0 0 0 0 0 0 0 0 0 0 0 0 0 0 0 0 0 0 0 0 0 0 0 0 0 0 0
0 0 0 0 0 0 0 0 0 0 0 0 0 0 0 0 0 0 0 0 0 0 0 0 0 0 0 0 0 0 0 0 0 0 0 0 0 0 0 0 0 0 0
0 0 0 0 0 0 0 0 0 0 0 0 0 0 0 0 0 0 0 0 0 0 0 0 0 0 0 0 0 0 0 0 0 0 0 0 0 0 0 0 0 0 0
0 0 0 0 0 0 0 0 0 0 0 0 0 0 0 0 0 0 0 0 0 0 0 0 0 0 0 0 0 0 0 0 0 0 0 0 0 0 0 0 0 0 0
0 0 0 0 0 0 0 0 0 0 0 0 0 0 0 0 0 0 0 0 0 0 0 0 0 0 0 0 0 0 0 0 0 0 0 0 0 0 0 0 0 0 0
Height
5866 5866 5866 5866 5866 5866 5866 5865 5865 5865 5865 5864 5864 5863 5863 5863 5862 5862 5861 5861 5861 5860 5860 5860 5859 5858 5858 5857 5857 5856 5856 5856 5855 5855 5855 5855 5854 5854 5854 5853 5853 5853 5853
5865 5864 5864 5864 5864 5864 5864 5864 5864 5863 5863 5862 5862 5861 5861 5860 5860 5859 5859 5858 5858 5857 5857 5856 5856 5855 5854 5854 5853 5853 5852 5852 5851 5851 5850 5850 5850 5849 5849 5849 5848 5848 5848
5863 5863 5863 5863 5863 5863 5863 5862 5862 5861 5861 5860 5859 5859 5858 5858 5857 5857 5856 5855 5855 5854 5853 5853 5852 5851 5850 5850 5849 5848 5848 5847 5847 5846 5846 5845 5844 5844 5844 5843 5843 5843 5842
5862 5862 5862 5862 5862 5861 5861 5860 5860 5859 5859 5858 5857 5856 5856 5855 5854 5854 5853 5852 5852 5851 5850 5849 5848 5847 5847 5846 5845 5844 5843 5843 5842 5841 5841 5840 5840 5839 5839 5838 5838 5837 5837
5861 5861 5860 5860 5860 5860 5859 5858 5858 5857 5856 5856 5855 5854 5853 5852 5852 5851 5850 5849 5848 5847 5846 5845 5844 5843 5842 5841 5840 5840 5839 5838 5837 5836 5836 5835 5834 5834 5833 5833 5832 5832 5832
5860 5859 5859 5859 5858 5858 5857 5856 5855 5855 5854 5853 5852 5851 5850 5849 5848 5847 5846 5845 5844 5843 5842 5841 5840 5839 5838 5837 5836 5835 5834 5833 5832 5831 5831 5830 5829 5828 5828 5827 5826 5826 5826
5859 5858 5858 5857 5856 5856 5855 5854 5853 5852 5851 5850 5849 5848 5847 5846 5845 5844 5843 5842 5841 5840 5839 5837 5836 5835 5834 5833 5831 5830 5829 5828 5827 5826 5825 5824 5824 5823 5822 5821 5820 5820 5819
5858 5857 5856 5855 5854 5853 5852 5851 5850 5849 5849 5847 5846 5845 5844 5843 5842 5841 5839 5838 5837 5836 5834 5833 5832 5831 5829 5828 5827 5825 5824 5823 5822 5821 5820 5819 5818 5817 5816 5815 5814 5813 5813
5856 5855 5854 5853 5852 5851 5850 5849 5848 5847 5846 5845 5843 5842 5841 5840 5838 5837 5836 5834 5833 5832 5830 5829 5827 5826 5825 5823 5822 5820 5819 5818 5816 5815 5814 5813 5812 5811 5810 5809 5808 5807 5806
5854 5853 5852 5851 5850 5849 5848 5847 5845 5844 5843 5842 5840 5839 5838 5836 5835 5833 5832 5830 5829 5827 5826 5824 5823 5821 5820 5818 5817 5815 5814 5812 5811 5810 5808 5807 5806 5805 5803 5802 5801 5800 5799
5852 5851 5850 5849 5848 5847 5845 5844 5842 5841 5840 5839 5837 5836 5834 5833 5831 5830 5828 5826 5825 5823 5822 5820 5818 5817 5815 5813 5811 5810 5808 5807 5805 5804 5802 5801 5799 5798 5797 5796 5794 5793 5792
5849 5848 5847 5846 5845 5844 5842 5841 5839 5838 5837 5835 5834 5832 5831 5829 5827 5826 5824 5822 5820 5819 5817 5815 5813 5812 5810 5808 5806 5804 5803 5801 5799 5798 5796 5795 5793 5792 5790 5789 5787 5786 5785
5846 5845 5844 5843 5842 5841 5839 5838 5836 5835 5833 5832 5830 5828 5827 5825 5823 5821 5820 5818 5816 5814 5812 5810 5808 5806 5805 5803 5801 5799 5797 5795 5794 5792 5790 5788 5787 5785 5783 5782 5780 5779 5778
5842 5841 5840 5839 5838 5837 5835 5834 5832 5831 5829 5828 5826 5824 5822 5821 5819 5817 5815 5813 5811 5809 5807 5805 5803 5801 5799 5797 5795 5793 5791 5789 5787 5785 5784 5782 5780 5778 5776 5775 5773 5771 5770
5839 5838 5836 5835 5834 5833 5831 5830 5828 5827 5825 5823 5822 5820 5818 5816 5814 5812 5810 5808 5806 5804 5802 5800 5797 5795 5793 5791 5789 5787 5785 5783 5781 5779 5777 5775 5773 5771 5769 5767 5765 5764 5762
5835 5834 5832 5831 5830 5828 5827 5825 5824 5822 5820 5819 5817 5815 5813 5811 5809 5807 5805 5802 5800 5798 5796 5794 5791 5789 5787 5785 5783 5781 5778 5776 5774 5772 5770 5768 5765 5763 5761 5759 5757 5755 5753
5830 5829 5828 5827 5825 5824 5822 5821 5819 5817 5815 5813 5812 5810 5808 5806 5804 5801 5799 5797 5794 5792 5790 5788 5785 5783 5781 5778 5776 5774 5772 5769 5767 5765 5762 5760 5758 5756 5753 5751 5749 5747 5745
5826 5825 5823 5822 5820 5819 5817 5815 5814 5812 5810 5808 5806 5804 5802 5800 5798 5795 5793 5791 5788 5786 5784 5781 5779 5777 5774 5772 5769 5767 5765 5762 5760 5757 5755 5752 5750 5748 5745 5743 5740 5738 5736
5821 5820 5818 5817 5815 5814 5812 5810 5808 5806 5804 5802 5800 5798 5796 5794 5792 5789 5787 5785 5782 5780 5777 5775 5772 5770 5767 5765 5762 5760 5757 5755 5752 5750 5747 5744 5742 5739 5736 5734 5731 5729 5726
5815 5814 5813 5811 5810 5808 5806 5805 5803 5801 5799 5796 5794 5792 5790 5788 5785 5783 5781 5778 5776 5773 5771 5768 5765 5763 5760 5758 5755 5752 5749 5747 5744 5741 5738 5735 5733 5730 5727 5724 5721 5719 5716
5809 5808 5807 5806 5804 5803 5801 5799 5797 5795 5793 5790 5788 5786 5783 5781 5779 5776 5774 5771 5769 5766 5763 5761 5758 5755 5753 5750 5747 5744 5742 5738 5735 5732 5729 5726 5723 5720 5717 5714 5711 5708 5705
5803 5802 5801 5800 5798 5797 5795 5793 5791 5789 5786 5784 5782 5779 5777 5774 5772 5769 5767 5764 5762 5759 5756 5753 5750 5747 5745 5742 5739 5736 5734 5731 5727 5723 5720 5716 5713 5710 5707 5703 5700 5697 5694
5797 5796 5795 5793 5792 5790 5788 5786 5784 5782 5780 5778 5775 5772 5770 5767 5765 5762 5759 5757 5754 5751 5748 5745 5742 5739 5736 5733 5730 5727 5724 5722 5719 5716 5711 5707 5703 5700 5696 5693 5689 5686 5682
5790 5789 5788 5787 5785 5783 5782 5780 5778 5776 5773 5771 5768 5765 5763 5760 5757 5755 5752 5749 5746 5743 5740 5737 5734 5730 5727 5724 5721 5717 5714 5711 5708 5706 5702 5698 5693 5689 5686 5682 5677 5674 5670
5783 5782 5781 5780 5778 5777 5775 5773 5771 5769 5767 5764 5761 5758 5755 5753 5750 5747 5744 5741 5738 5735 5732 5728 5725 5722 5718 5715 5711 5708 5704 5700 5697 5693 5691 5688 5683 5678 5674 5670 5665 5661 5657
5777 5776 5774 5773 5771 5770 5768 5766 5764 5762 5759 5756 5753 5751 5748 5745 5742 5738 5735 5732 5729 5726 5723 5719 5716 5712 5709 5705 5701 5697 5693 5690 5686 5682 5679 5676 5672 5668 5662 5657 5652 5647 5642
Wind_Speed
5 6 6 6 6 7 7 8 9 9 9 10 11 12 12 13 13 14 15 15 16 16 17 17 18 18 19 19 19 20 21 21 22 22 22 23 23 24 24 25 25 25 25
4 4 5 5 6 7 8 8 9 10 10 11 11 12 13 13 14 14 15 16 17 18 18 18 19 19 20 20 20 21 21 22 22 23 23 24 24 25 25 25 26 26 27
4 5 5 6 7 8 9 9 10 10 11 12 12 13 13 14 15 15 16 17 17 18 18 19 19 19 20 20 21 21 22 23 23 23 24 24 25 25 26 26 27 27 27
4 5 6 7 8 8 9 10 11 11 12 13 13 14 14 15 16 16 17 17 18 18 19 19 19 20 21 22 22 23 23 24 24 24 25 25 25 26 27 27 27 28 28
5 6 7 8 8 9 10 10 11 12 12 13 14 15 16 16 17 18 19 19 20 20 20 21 21 22 22 23 23 24 24 24 24 25 25 26 26 27 27 27 28 28 29
6 7 8 8 9 10 11 11 12 13 14 14 15 16 17 18 19 19 20 20 21 21 21 22 22 22 22 23 23 24 24 24 25 25 26 26 27 27 27 28 28 29 29
7 8 9 9 10 10 11 12 13 14 14 15 16 16 17 18 18 19 19 20 20 21 21 22 23 23 23 23 24 24 24 25 25 25 26 27 27 28 29 29 29 30 30
8 9 10 10 11 11 12 13 14 14 15 16 16 17 17 18 18 19 19 20 20 21 22 22 23 23 24 24 25 25 26 26 26 27 27 28 28 29 29 30 30 30 31
9 10 10 11 12 12 12 13 14 15 15 16 17 17 18 18 19 20 20 21 21 22 22 23 23 24 25 25 26 26 27 27 27 27 28 28 29 29 30 30 30 31 32
11 11 11 12 13 13 14 14 15 15 16 17 17 18 18 19 19 20 21 21 22 22 23 23 24 24 25 26 26 26 27 27 28 28 28 29 29 29 30 30 31 32 32
12 13 13 14 14 15 15 15 16 17 17 18 18 19 19 20 20 21 22 22 23 23 23 24 25 25 26 26 27 27 28 28 28 28 29 29 30 30 31 31 32 32 32
14 15 15 16 16 16 16 17 17 18 18 19 20 20 21 21 22 22 23 23 23 24 24 25 26 26 26 27 28 28 28 29 29 29 30 30 31 31 31 32 32 33 33
16 17 17 17 18 18 18 18 19 19 20 21 21 22 22 23 23 24 24 24 25 25 25 26 26 27 27 28 28 29 29 30 30 31 31 31 31 32 32 32 33 33 34
18 18 19 19 19 19 20 20 20 21 21 22 22 23 23 24 25 25 25 26 26 26 27 27 27 28 28 29 29 30 30 30 31 31 31 32 32 33 33 34 34 34 35
20 20 20 20 21 21 21 21 21 22 23 23 23 24 25 26 26 27 27 27 28 28 28 28 29 29 30 30 30 31 31 31 32 32 33 33 33 34 34 35 36 36 37
21 21 21 22 22 22 22 23 23 23 24 24 25 25 26 27 27 28 28 29 29 29 29 30 30 30 31 31 31 32 32 33 33 33 34 34 35 35 36 36 37 37 38
22 22 23 23 23 23 23 24 25 25 25 26 26 27 27 28 29 29 29 30 30 31 31 31 32 32 32 32 32 33 34 34 34 35 35 35 36 36 37 37 37 38 38
23 23 23 24 24 25 25 26 26 27 27 27 28 28 29 29 30 31 31 31 31 32 32 33 33 33 33 33 33 34 35 35 35 36 36 37 37 37 38 38 39 39 40
24 24 24 25 25 26 27 27 28 28 29 29 29 30 30 31 31 32 32 32 33 33 33 34 34 34 34 35 35 35 36 36 37 37 38 38 39 39 40 40 41 41 41
25 26 26 26 27 27 28 29 29 30 30 30 31 31 32 32 33 33 33 34 34 34 35 35 35 35 36 36 37 37 37 38 38 39 40 41 41 42 42 42 42 43 43
27 27 27 27 27 28 29 30 30 30 31 31 32 32 33 33 34 34 34 35 35 35 36 36 36 37 37 38 38 39 39 40 40 41 42 42 43 43 43 44 44 45 45
28 28 28 28 29 29 30 30 30 31 31 32 32 32 33 34 34 35 35 35 36 36 37 37 37 38 38 39 39 40 41 41 42 43 44 44 45 45 45 46 46 47 47
28 29 29 29 30 30 30 31 31 32 32 33 33 33 34 35 35 35 36 36 37 37 38 38 39 39 40 41 41 42 43 43 43 43 44 45 46 47 47 48 48 49 49
29 30 30 30 30 30 31 31 32 32 32 33 34 34 35 35 35 36 37 38 38 39 39 40 40 41 42 42 43 44 44 45 45 44 44 46 47 47 48 49 50 51 51
30 30 30 30 31 31 31 31 32 32 33 34 34 35 36 36 37 38 39 39 40 40 41 41 42 42 43 44 45 45 46 46 47 47 46 46 48 49 50 51 52 53 54
30 30 30 30 31 31 31 32 32 33 34 35 36 36 37 37 38 39 39 40 41 41 42 42 43 43 44 45 46 47 47 48 48 49 49 49 49 50 51 52 53 55 56
Wind_Direction
269 268 271 276 280 283 288 290 292 294 296 297 298 298 297 295 294 293 292 291 290 289 289 288 288 287 285 284 283 282 281 280 280 279 278 277 276 275 274 274 273 273 273
272 272 278 283 287 288 291 293 295 297 299 301 301 302 301 299 297 296 295 293 292 291 290 289 288 288 286 285 284 282 282 281 280 280 279 278 277 276 275 274 273 272 271
292 290 292 293 294 295 294 295 296 299 301 302 302 302 303 302 300 299 297 296 294 293 292 291 290 289 288 287 286 284 283 281 280 279 279 278 277 276 276 275 274 273 272
308 303 299 297 296 297 297 297 298 298 300 301 301 302 302 301 300 300 299 298 296 295 294 293 292 290 289 288 287 285 284 283 281 280 279 279 278 277 276 275 275 274 273
313 309 304 300 298 298 298 299 299 299 300 301 301 302 302 301 300 299 298 297 296 295 294 293 292 291 290 288 287 286 284 283 281 280 279 279 278 277 277 276 276 275 274
314 311 307 303 300 300 301 302 301 301 301 301 301 301 301 301 300 299 298 297 296 296 295 294 293 292 291 289 288 287 285 283 282 281 280 279 279 278 277 277 276 275 274
313 311 308 306 303 301 301 302 303 303 304 304 303 302 301 301 301 301 300 299 298 296 295 294 294 293 291 290 289 288 286 285 284 283 282 281 280 279 279 278 277 276 275
311 309 307 307 305 303 303 303 303 304 304 304 305 305 304 303 303 301 301 300 299 298 296 295 294 293 292 291 290 289 287 286 285 284 282 282 281 280 279 278 277 276 275
309 308 307 307 306 306 305 304 303 304 305 306 306 305 305 305 303 302 301 301 300 299 297 296 295 294 293 292 291 289 288 287 286 285 284 283 282 281 280 279 278 277 276
307 307 307 307 306 307 306 305 303 304 305 306 305 305 304 304 304 303 302 301 300 299 298 297 296 295 294 293 292 291 290 289 288 287 286 285 284 283 282 281 280 279 278
303 304 304 303 303 304 304 304 303 302 303 304 304 304 304 304 303 302 302 301 300 300 299 298 297 296 295 294 293 292 291 290 289 288 287 286 285 284 283 282 281 280 279
299 300 301 301 301 302 302 302 302 302 302 303 303 303 303 302 302 302 301 300 300 299 299 298 297 296 296 295 294 293 292 290 290 289 288 288 287 286 285 284 283 282 281
295 297 298 298 299 300 301 301 301 301 302 302 302 302 301 300 300 299 299 299 298 298 297 297 297 296 296 295 294 293 292 291 290 290 290 289 288 287 287 286 285 284 283
292 294 294 295 297 298 298 300 300 300 300 300 300 300 300 299 299 299 298 298 298 297 297 297 297 296 295 295 294 293 293 292 292 291 291 290 290 289 288 287 286 286 285
290 291 292 293 295 295 296 298 299 299 299 299 299 299 299 298 298 298 298 298 298 297 297 297 297 296 296 295 294 294 294 293 293 292 292 291 290 289 289 288 288 287 287
287 289 290 291 292 293 295 296 297 298 298 297 297 297 297 297 298 298 298 298 297 296 296 296 297 296 296 295 294 294 294 294 293 293 293 292 291 291 290 289 289 288 288
287 288 289 289 290 292 293 295 296 296 296 296 296 296 296 296 296 297 297 296 296 296 296 296 296 296 295 295 294 294 295 294 293 293 293 293 292 292 291 290 290 289 288
285 287 287 288 290 291 292 293 294 295 295 295 295 295 295 295 295 296 295 295 295 295 295 296 296 296 295 294 295 295 295 294 294 293 293 293 293 292 291 290 290 289 289
284 286 286 288 289 290 291 292 293 293 293 293 294 294 294 294 295 295 295 295 295 295 295 296 296 296 295 295 295 295 295 294 294 294 293 293 293 293 292 291 290 290 289
284 285 286 287 288 289 290 292 293 293 292 292 293 293 294 295 295 294 294 295 295 295 295 295 295 296 295 295 295 295 295 295 294 294 294 294 294 294 293 292 291 291 290
283 284 285 286 287 288 290 291 292 292 292 292 292 293 294 295 295 295 294 294 295 295 296 296 296 296 295 295 295 295 295 295 295 295 295 295 295 295 294 293 293 292 292
282 284 285 285 287 289 290 291 291 291 292 292 293 293 294 294 294 295 295 295 295 295 296 296 296 296 296 296 295 295 295 295 295 296 296 296 296 295 295 295 294 293 293
281 282 284 285 287 288 290 291 291 291 292 292 292 293 293 294 294 295 295 295 295 295 296 296 296 296 296 296 296 296 296 296 295 295 295 295 296 296 296 296 295 294 294
281 282 283 285 286 288 289 291 291 291 291 292 292 293 294 294 295 295 295 295 295 295 296 296 296 296 296 296 296 296 296 296 296 295 295 295 295 295 295 295 295 295 295
280 282 283 284 286 288 289 290 291 291 291 292 293 294 294 294 294 294 294 295 295 296 296 297 297 296 296 297 296 296 296 297 296 296 296 295 296 296 296 296 296 296 295
280 281 282 284 285 287 289 290 291 291 292 292 293 293 294 295 295 295 295 295 296 296 297 297 297 297 297 297 297 297 297 297 297 297 296 297 296 296 297 297 297 297 296